Location: Cicognara
(44.9500°N, 10.4667°E)
Time: 08:52:24
(UTC+00:00)

Meteor 1-4 Rocket - Pass Details

Date: 20 June 2021
Orbit: 447 x 499 km, 81.2° (Epoch: 04 August)

Event Time Altitude Azimuth Distance (km) Brightness Sun altitude
Rises 23:22:05 0° 339° (NNW) 2,477 7.4 -21.6°
Reaches altitude 10° 23:24:20 10° 328° (NNW) 1,592 6.0 -21.6°
Enters shadow 23:27:01 28° 279° (W) 876 3.9 -21.6°
